Location: Terra Rouge Observatory
(46.0000°N, 62.7500°W)
Time: 16:39:52
(UTC-03:00)

NOSS 3-1 (A) - Visible Passes

Search period start: 19 April 2018 00:00
Search period end: 29 April 2018 00:00
Orbit: 808 x 1405 km, 63.4° (Epoch: 08 April)

Date Brightness Start Highest point End Pass type
(mag) Time Alt. Az. Time Alt. Az. Time Alt. Az.
19 Apr 6.5 21:44:36 10° W 21:47:42 13° WSW 21:50:55 10° SW visible
20 Apr 6.3 20:57:56 10° WNW 21:03:26 21° WSW 21:09:14 10° SSW visible
23 Apr 6.6 20:35:31 10° WNW 20:39:49 16° WSW 20:44:19 10° SW visible
